Погода в Троицких Росляях

Россия / Тамбовская область     53°21′40″N   41°22′59″E
темп.,
°C
ветер,
м/с
пор.,
м/с
влажн.,
%
обл.,
%
осадки,
мм/ч
давл.,
гПа
погр.,
м
31 июля, сб
сб3100:00+19з22950 0.0 100634
03:00+18зюз36961 0.0 1006148
06:00+18зюз37940 0.0 1007238
09:00+24з46640 0.0 1008789
12:00+28зсз56380 0.0 10082285
15:00+29зсз673595 0.0 10082559
18:00+28юз35391 0.0 1008913
21:00+23з3553100 0.0 101075
1 августа, вс
вс100:00+21ююв22585 0.0 101011
03:00+19з236422 0.0 101230
06:00+20зсз2368100 0.0 101381
09:00+26з124795 0.0 1013638
12:00+30з33316 0.0 10131749
15:00+31зюз332623 0.0 10132250
18:00+31юв023068 0.0 10121776
21:00+23юв34485 0.0 101251
2 августа, пн
пн200:00+24ю4104798 0.0 1012219
03:00+21ююз36590 0.0 101289
06:00+21ю38630 0.0 1013191
09:00+28ю454360 0.0 1012513
12:00+33ю58328 0.0 10102021
15:00+35ююз6102316 0.0 10083599
18:00+33ю58265 0.0 10071347
21:00+25всв345334 0.0 100872
3 августа, вт
вт300:00+24ююв41148100 0.1 1007218
03:00+25зюз5115085 0.1 1007494
06:00+23юз51267100 0.0 1007499
09:00+25юз5857100 0.0 1007746
12:00+25юз5756100 0.1 1008729
15:00+30зюз6937100 0.1 10072704
18:00+26з6843100 0.4 10081519
21:00+20ссз486597 0.4 1011328
4 августа, ср
ср400:00+16ссз34800 0.0 101295
03:00+15сз22850 0.0 101328
06:00+16з24770 0.0 1014127
09:00+23зсз34490 0.0 1015998
12:00+26зсз453552 0.0 10142311
15:00+25зюз353484 0.0 10141708
18:00+27з343099 0.0 10142442
21:00+21с244899 0.0 1016115